Torna al catalogo

COSMOS 803

AttivoMilitareVLEO
NORAD 8688·PAYLOAD·🇷🇺 Russia

Lanciato Feb 12, 1976 da Plesetsk Cosmodrome

Loading…

Prossimi Passaggi (prossime 24 ore)

TLE

AggiornatoSource: Space-Track

Epoca: Sep 14, 2026, 10:13 UTC

1 08688U 76014A   26257.42573689  .00009743  00000-0  99776-4 0  9999
2 08688  65.8354  43.7106 0018064 294.8405  65.0874 15.65295681805815

Traccia COSMOS 803 in tempo reale con AllMySat

Download on the App Store